DIRECTV 8

Last updated on Wed Sep 17 2025 00:02:46 GMT+0000 (Coordinated Universal Time)

1 28659U 05019A 25259.56007191 -.00000018 00000+0 00000+0 0 9995 2 28659 0.0190 148.1228 0003108 43.9058 246.2999 1.00271752 74321
UTC large
Height (km)
Speed (km/s)
/
Latitude / Longitude
Inclination (degrees)
Orbital Period (minutes)
Azimuth
Elevation
Range (km)
Doppler Factor

Next 0 passes for location: London (51.5072 / 0.1276)

Sorry there are no passes over London.